PROFILE

 METAR AND TAF INFORMATION
ADDS - METARS form results

(0231 UTC 20 February 2020)
http://aviationweather.gov/metar/data/
 
FGSL 200200Z 00000KT 6000 FEW010 24/22 Q1008 NOSIG
TAF FGSL 192300Z 2000/2106 24006KT 8000 SCT012 PROB30 TEMPO 2004/2010 TS BKN012 FEW020CB 

 AIRPORT MAP

 RUNWAY INFORMATION
Runway 05 Runway length 9647 ft Runway width 151 ft
Runway elevation 75 ft Runway displaced threshold 0 ft Runway heading 42
Runway 23 Runway length 9647 ft Runway width 151 ft
Runway elevation 41 ft Runway displaced threshold 0 ft Runway heading 222

 AIRPORT FREQUENCIES
Type A/G Name A/G VOICE Frequency 655.9 MHZ
Type TWR Name TWR Frequency 128.3 MHZ

 AIRPORT NEAR NAVIGATION AIDS
Type NDB Name Bata Frequency 325 KHZ
Type VOR-DME Name Malabo Frequency 114500 KHZ
Type NDB Name Malabo Frequency 342 KHZ